DateTimeUTC,F1_A11,F1_S11,BsB_S11,BsG_S11,BsR_S11,BbsB_S11,BbsG_S11,BbsR_S11,BaB_A11,BaG_A11,BaR_A11,Tu_S11,T_S11,Uu_S11,U_S11,P_S11,T1_A11
2021-02-18T13:00:00Z,00000200,21000000,,,,,,,0000.19,-000.10,-000.17,17.8,23.9,,00.0,0632.8,31.1
2021-02-18T13:01:00Z,00000200,21000000,,,,,,,0000.26,0000.05,0000.08,17.8,23.9,,00.0,0632.8,31.1
2021-02-18T13:02:00Z,00000200,21000000,,,,,,,-000.38,0000.21,-000.12,17.9,23.9,,00.0,0632.9,31.1
2021-02-18T13:03:00Z,00000200,61000000,,,,,,,0000.05,-000.31,0000.03,17.9,24.0,,00.0,0632.9,31.1
2021-02-18T13:04:00Z,00000200,41000000,0000.24,-000.08,0000.23,-000.03,0000.29,0000.12,0000.47,0000.08,0000.11,18.1,24.0,00.0,00.0,0633.8,31.1
2021-02-18T13:05:00Z,00000200,01000000,-000.01,-000.09,0000.02,-000.10,0000.04,0000.00,-000.04,0000.13,-000.08,18.2,24.0,00.0,00.0,0633.8,31.1
2021-02-18T13:06:00Z,00000200,01000000,0000.01,0000.13,-000.01,0000.26,0000.32,0000.01,-000.31,0000.23,0000.19,18.3,24.0,00.0,00.0,0633.9,31.1
2021-02-18T13:07:00Z,00000200,01000000,0000.08,-000.07,0000.16,-000.57,-000.06,0000.22,0000.26,-000.18,-000.04,18.3,24.0,,00.0,0633.8,31.1
2021-02-18T13:08:00Z,00000200,01000000,-000.18,0000.14,0000.16,0000.03,0000.12,0000.08,-000.35,0000.25,-000.01,18.4,24.0,,00.0,0633.9,31.2
2021-02-18T13:09:00Z,00000200,01000000,0000.43,-000.22,0000.27,0000.07,0000.33,0000.07,0000.25,-000.07,0000.16,18.4,24.1,,00.0,0633.7,31.1
2021-02-18T13:10:00Z,00000200,01000000,0000.56,0000.18,0000.11,-000.21,0000.33,0000.50,-000.01,0000.04,-000.04,18.4,24.1,,00.0,0633.8,31.1
2021-02-18T13:11:00Z,00000200,01000000,0000.58,0000.07,0000.46,-000.34,-000.09,0000.12,0000.11,-000.04,-000.08,18.4,24.1,,00.0,0633.6,31.1
2021-02-18T13:12:00Z,00000200,01000000,0000.23,0000.02,0000.11,-000.22,0000.15,0000.27,0000.11,-000.10,0000.07,18.3,24.1,,00.0,0633.7,31.1
2021-02-18T13:13:00Z,00000200,01000000,0001.22,0000.04,-000.01,0000.15,0000.21,-000.02,-000.02,0000.02,0000.06,18.2,24.0,00.0,00.0,0633.7,31.1
2021-02-18T13:14:00Z,00000200,01000000,0000.08,-000.20,0000.31,-000.02,0000.21,0000.14,-000.40,0000.35,0000.10,18.2,24.0,00.0,00.0,0633.6,31.0
2021-02-18T13:15:00Z,00000200,01000000,0000.72,0000.04,-000.02,0000.20,0000.34,-000.05,0000.31,-000.08,-000.00,18.1,24.0,00.0,00.0,0633.7,31.0
2021-02-18T13:16:00Z,00000200,01000000,0000.51,0000.21,0000.30,0000.04,0000.04,0000.45,0000.24,-000.11,0000.03,18.0,23.9,00.0,00.0,0633.5,31.0
2021-02-18T13:17:00Z,00000200,01000000,-000.59,-000.06,-000.01,-000.38,0000.26,-000.17,0000.14,-000.08,-000.06,18.0,23.9,,00.0,0633.6,31.0
2021-02-18T13:18:00Z,00000200,01000000,0000.26,-000.07,-000.20,-000.19,0000.12,0000.15,0000.00,0000.41,-000.17,18.0,23.9,00.0,00.0,0633.6,31.0
2021-02-18T13:19:00Z,00000200,01000000,0000.39,-000.14,-000.20,-000.10,-000.06,0000.45,0000.12,-000.02,0000.20,17.9,23.9,00.0,00.0,0633.5,31.0
2021-02-18T13:20:00Z,00000200,01000000,0000.78,0000.18,-000.21,0000.28,0000.13,0000.22,0000.47,-000.05,0000.07,17.9,23.8,00.0,00.0,0633.5,31.0
2021-02-18T13:21:00Z,00000200,01000000,0000.12,0000.22,0000.07,0000.08,-000.06,0000.59,-000.23,0000.34,0000.15,17.9,23.8,00.0,00.0,0633.4,31.0
2021-02-18T13:22:00Z,00000200,01000000,0000.47,0000.15,0000.14,0000.40,-000.10,0000.02,0000.02,0000.08,0000.06,18.0,23.8,00.0,00.0,0633.4,31.1
2021-02-18T13:23:00Z,00000200,01000000,-000.11,0000.46,0000.22,-000.06,0000.22,0000.29,-000.03,-000.29,-000.26,18.0,23.9,00.0,00.0,0633.5,31.1
2021-02-18T13:24:00Z,00000200,01000000,0000.45,0000.06,-000.04,0000.13,0000.07,0000.15,0000.22,0000.01,0000.52,18.0,23.9,00.0,00.0,0633.4,31.0
2021-02-18T13:25:00Z,00000200,01000000,0000.07,0000.04,0000.00,0000.17,0000.01,0000.18,-000.06,0000.29,-000.21,18.0,23.9,00.1,00.0,0633.4,31.0
2021-02-18T13:26:00Z,00000200,01000000,-000.05,0000.22,0000.26,0000.11,0000.20,0000.28,0000.40,0000.08,0000.22,17.9,23.8,00.0,00.0,0633.4,31.1
2021-02-18T13:27:00Z,00000200,01000000,-000.77,-000.20,0000.19,-000.16,0000.21,0000.17,0000.04,0000.16,0000.08,17.9,23.8,00.0,00.0,0633.3,31.0
2021-02-18T13:28:00Z,00000200,01000000,0000.40,0000.10,0000.18,-000.24,0000.23,0000.50,-000.09,-000.17,-000.00,17.8,23.8,00.0,00.0,0633.4,31.0
2021-02-18T13:29:00Z,00000200,01000000,-000.53,-000.03,0000.31,0000.06,0000.02,0000.26,-000.20,0000.11,-000.28,17.8,23.8,00.0,00.0,0633.3,31.0
2021-02-18T13:30:00Z,00000200,01000000,-000.15,0000.13,0000.37,-000.07,0000.09,0000.51,0000.22,0000.11,0000.16,17.7,23.7,00.1,00.0,0633.2,31.0
2021-02-18T13:31:00Z,00000200,01000000,0000.48,0000.17,0000.04,0000.33,0000.07,0000.22,-000.00,-000.15,-000.01,17.7,23.7,00.0,00.0,0633.2,31.0
2021-02-18T13:32:00Z,00000200,01000000,0000.13,-000.08,-000.19,0000.29,0000.16,0000.20,0000.18,0000.04,0000.03,17.6,23.7,00.1,00.0,0633.1,31.0
2021-02-18T13:33:00Z,00000200,01000000,0000.24,-000.11,-000.07,-000.08,0000.17,0000.16,0000.11,0000.06,0000.06,17.6,23.7,00.0,00.0,0633.1,31.0
2021-02-18T13:34:00Z,00000200,01000000,0000.26,0000.00,0000.09,0000.58,0000.15,-000.02,0000.15,-000.04,-000.18,17.5,23.6,00.1,00.0,0633.0,31.0
2021-02-18T13:35:00Z,00000200,01000000,0000.18,-000.08,0000.09,0000.38,0000.10,0000.22,-000.03,0000.10,0000.21,17.5,23.6,00.1,00.0,0633.1,31.0
2021-02-18T13:36:00Z,00000200,01000000,-000.23,0000.13,-000.09,0000.03,0000.01,0000.52,-000.12,0000.14,0000.27,17.6,23.6,00.1,00.1,0633.1,31.0
2021-02-18T13:37:00Z,00000200,01000000,-000.58,-000.18,0000.07,-000.17,0000.20,-000.14,0000.35,0000.12,0000.11,17.6,23.6,00.1,00.1,0633.1,31.0
2021-02-18T13:38:00Z,00000200,01000000,0000.23,-000.20,0000.05,0000.16,0000.07,0000.26,-000.21,0000.18,0000.01,17.7,23.6,00.1,00.0,0633.0,31.0
2021-02-18T13:39:00Z,00000200,01000000,0000.27,-000.01,0000.00,-000.50,-000.02,0000.26,0000.33,0000.13,0000.11,17.8,23.7,00.1,00.0,0633.0,31.0
2021-02-18T13:40:00Z,00000200,01000000,0000.20,-000.00,0000.25,-000.05,0000.17,0000.53,-000.14,0000.07,0000.09,17.9,23.7,00.1,00.0,0632.9,31.0
2021-02-18T13:41:00Z,00000200,01000000,0000.08,0000.09,0000.14,0000.05,0000.36,0000.38,0000.05,-000.03,-000.31,17.9,23.7,00.1,00.1,0633.0,31.0
2021-02-18T13:42:00Z,00000200,01000000,0000.39,0000.40,-000.03,0000.28,0000.06,0000.22,0000.08,-000.15,0000.16,17.9,23.8,00.1,00.1,0633.0,31.0
2021-02-18T13:43:00Z,00000200,01000000,-000.73,-000.04,0000.07,0000.23,-000.05,0000.16,-000.19,0000.27,0000.00,17.9,23.7,00.0,00.0,0633.0,31.0
2021-02-18T13:44:00Z,00000200,01000000,0000.52,0000.00,0000.07,-000.46,0000.11,0000.71,0000.28,-000.11,-000.06,17.8,23.7,00.1,00.1,0633.0,31.0
2021-02-18T13:45:00Z,00000200,01000000,0000.22,0000.17,0000.05,-000.02,0000.40,0000.33,-000.25,0000.02,-000.24,17.8,23.7,00.1,00.0,0633.1,31.0
2021-02-18T13:46:00Z,00000200,01000000,-000.31,0000.05,0000.08,0000.07,0000.07,0000.20,0000.12,-000.29,0000.19,17.7,23.7,00.1,00.1,0632.9,31.0
2021-02-18T13:47:00Z,00000200,01000000,-000.07,0000.10,-000.01,-000.28,-000.03,0000.16,-000.05,0000.10,-000.02,17.7,23.6,00.1,00.1,0632.9,31.0
2021-02-18T13:48:00Z,00000200,01000000,-000.24,0000.35,-000.07,-000.27,0000.11,0000.27,-000.22,0000.10,-000.16,17.6,23.6,00.1,00.0,0632.9,31.0
2021-02-18T13:49:00Z,00000200,01000000,0000.43,-000.02,0000.35,0000.33,0000.22,0000.19,0000.21,-000.30,0000.33,17.6,23.6,00.1,00.0,0632.9,31.0
2021-02-18T13:50:00Z,00000200,01000000,0000.60,0000.06,0000.11,0000.04,0000.16,0000.15,0000.19,0000.24,-000.02,17.5,23.5,00.1,00.1,0632.9,31.0
2021-02-18T13:51:00Z,00000200,01000000,0000.48,-000.17,0000.15,0000.67,0000.21,0000.32,-000.08,0000.16,-000.07,17.6,23.5,00.1,00.1,0633.0,31.0
2021-02-18T13:52:00Z,00000200,01000000,-000.29,0000.01,0000.14,-000.07,0000.02,0000.17,0000.00,0000.25,0000.14,17.7,23.6,00.1,00.1,0632.9,31.0
2021-02-18T13:53:00Z,00000200,01000000,0000.36,0000.12,-000.06,-000.33,0000.25,0000.16,0000.00,0000.12,0000.01,17.7,23.6,00.1,00.1,0632.9,31.0
2021-02-18T13:54:00Z,00000200,01000000,0000.62,0000.11,0000.34,-000.50,0000.07,0000.15,0000.23,0000.25,0000.31,17.8,23.7,00.1,00.1,0632.9,31.0
2021-02-18T13:55:00Z,00000200,01000000,0000.30,0000.07,0000.02,0000.19,0000.30,0000.25,0000.22,-000.14,-000.21,17.9,23.7,00.0,00.0,0632.8,31.1
2021-02-18T13:56:00Z,00000200,01000000,-000.34,0000.13,0000.26,-000.25,0000.24,0000.09,-000.17,-000.02,0000.42,18.0,23.8,00.1,00.0,0632.9,31.1
2021-02-18T13:57:00Z,00000200,41000000,,,,,,,-000.05,-000.67,-000.37,18.1,23.8,,00.0,0632.8,31.1
2021-02-18T13:58:00Z,00000200,61000000,,,,,,,-000.12,0000.36,-000.32,17.9,23.9,,00.0,0631.9,31.1
2021-02-18T13:59:00Z,00000200,21000000,,,,,,,-000.05,0000.12,0000.12,17.9,24.0,,00.0,0631.9,31.1
